Content
SEND FEEDBACK

Daily
Averages
Monthly
Summary
Germany

BERLIN, GERMANY


Home > Europe > Germany
Elevation: 157 feet     Latitude: 52 23N     Longitude: 013 31E

WEATHER
 
SELECT A DAY
Number of Records: 259,101;   Date Range: 7/3/96 - 10/23/14
 
SHARE

PRINT THIS DATA

[ ← Previous Day ]
WEATHER ALMANAC - APRIL 1, 2013
[ Next Day → ]
[ °C ]   °F
Weather ElementAverageHighLow
Temperature32.9 °F37.4 °F (3:20 pm)28.4 °F (11:50 pm)
Dewpoint24.1 °F28.4 °F (2:20 am)19.4 °F (3:50 pm)
Humidity71.4 %93 % (2:20 am)48 % (3:50 pm)
Barometer29.85 in29.92 in (8:50 pm)29.80 in (4:50 am)
Wind Speed9.1 mph13.8 mph (2:50 am)
Weather ElementAverage
Visibility6.2 mi
Wind DirectionWSW (255.3 °)

Weather ElementTotal
Precipitation---
Heating Degree Days32.1 (Base 65)
Averaged from 47 records on April 1, 2013
WEATHER CONDITIONS BREAKOUT
WIND DIRECTION BREAKOUT
WEATHER BY HOUR - APRIL 1, 2013
[ °C ]   °F
Local TimeTemperatureDewpointHumidityBarometerVisibilityWind DirectionWind SpeedGust SpeedPrecipitationEventsConditions
12:50 AM30.2 °F26.6 °F86 %29.83 in6.2 miNNW (340°)10.4 mphMostly Cloudy
1:20 AM30.2 °F26.6 °F86 %29.83 in6.2 miNNW (340°)11.5 mphMostly Cloudy
1:50 AM30.2 °F26.6 °F86 %29.83 in6.2 miNNW (340°)10.4 mphSnowLight Snow
2:20 AM30.2 °F28.4 °F93 %29.83 in6.2 miNNW (340°)10.4 mphSnowLight Snow
2:50 AM30.2 °F26.6 °F86 %29.83 in6.2 miNNW (340°)13.8 mphSnowLight Snow
3:20 AM30.2 °F26.6 °F86 %29.83 in6.2 miNNW (340°)13.8 mphSnowLight Snow
3:50 AM30.2 °F26.6 °F86 %29.83 in6.2 miNNW (340°)12.7 mphSnowLight Snow
4:20 AM30.2 °F26.6 °F86 %29.83 in6.2 miNNW (340°)11.5 mphSnowLight Snow
4:50 AM30.2 °F26.6 °F86 %29.80 in6.2 miNNW (330°)11.5 mphSnowLight Snow
5:20 AM30.2 °F26.6 °F86 %29.80 in6.2 miNNW (330°)10.4 mphMostly Cloudy
5:50 AM30.2 °F26.6 °F86 %29.80 in6.2 miNNW (340°)10.4 mphMostly Cloudy
6:20 AM30.2 °F26.6 °F86 %29.80 in6.2 miNNW (330°)8.1 mphMostly Cloudy
6:50 AM30.2 °F26.6 °F86 %29.80 in6.2 miNNW (340°)8.1 mphMostly Cloudy
7:20 AM30.2 °F26.6 °F86 %29.80 in6.2 miNNW (340°)8.1 mphMostly Cloudy
7:50 AM30.2 °F24.8 °F80 %29.80 in6.2 miNNW (330°)9.2 mphMostly Cloudy
8:20 AM30.2 °F24.8 °F80 %29.83 in6.2 miNNW (340°)9.2 mphMostly Cloudy
8:50 AM32.0 °F26.6 °F80 %29.83 in6.2 miNorth (360°)9.2 mphMostly Cloudy
9:20 AM32.0 °F26.6 °F80 %29.83 in6.2 miNorth (350°)8.1 mphMostly Cloudy
9:50 AM32.0 °F24.8 °F75 %29.83 in6.2 miNorth (350°)10.4 mphMostly Cloudy
10:20 AM33.8 °F26.6 °F75 %29.83 in6.2 miNNW (330°)8.1 mphMostly Cloudy
10:50 AM33.8 °F26.6 °F75 %29.83 in6.2 miNNW (330°)9.2 mphMostly Cloudy
11:20 AM33.8 °F23.0 °F65 %29.83 in6.2 miNorth (350°)9.2 mphMostly Cloudy
11:50 AM35.6 °F24.8 °F65 %29.83 in6.2 miNNW (340°)9.2 mphMostly Cloudy
12:20 PM33.8 °F24.8 °F70 %29.83 in6.2 miNorth (360°)10.4 mphMostly Cloudy
12:50 PM35.6 °F24.8 °F65 %29.83 in6.2 miNorth (350°)9.2 mphMostly Cloudy
1:20 PM35.6 °F23.0 °F60 %29.83 in6.2 miNNW (340°)10.4 mphMostly Cloudy
1:50 PM35.6 °F23.0 °F60 %29.86 in6.2 miNorth (360°)8.1 mphMostly Cloudy
2:20 PM35.6 °F21.2 °F56 %29.86 in6.2 miNorth (350°)9.2 mphMostly Cloudy
2:50 PM35.6 °F23.0 °F60 %29.86 in6.2 miNorth (360°)11.5 mphMostly Cloudy
3:20 PM37.4 °F21.2 °F52 %29.86 in6.2 miNNW (340°)9.2 mphMostly Cloudy
3:50 PM37.4 °F19.4 °F48 %29.86 in6.2 miNorth (350°)10.4 mphMostly Cloudy
4:20 PM37.4 °F21.2 °F52 %29.86 in6.2 miNorth (360°)10.4 mphMostly Cloudy
4:50 PM37.4 °F21.2 °F52 %29.86 in6.2 miNorth (350°)9.2 mphMostly Cloudy
5:20 PM37.4 °F21.2 °F52 %29.86 in6.2 miNorth (10°)9.2 mphMostly Cloudy
5:50 PM35.6 °F23.0 °F60 %29.86 in6.2 miNNE (30°)8.1 mphMostly Cloudy
6:20 PM35.6 °F21.2 °F56 %29.86 in6.2 miENE (70°)6.9 mphMostly Cloudy
6:50 PM35.6 °F21.2 °F56 %29.86 in6.2 miNE (40°)6.9 mphMostly Cloudy
7:20 PM35.6 °F21.2 °F56 %29.89 in6.2 miNE (40°)6.9 mphMostly Cloudy
7:50 PM33.8 °F21.2 °F60 %29.89 in6.2 miENE (60°)8.1 mphMostly Cloudy
8:20 PM33.8 °F21.2 °F60 %29.89 in6.2 miNE (50°)5.8 mphMostly Cloudy
8:50 PM33.8 °F21.2 °F60 %29.92 in6.2 miNE (40°)6.9 mphMostly Cloudy
9:20 PM33.8 °F23.0 °F65 %29.92 in6.2 miNE (50°)6.9 mphMostly Cloudy
9:50 PM32.0 °F23.0 °F69 %29.92 in6.2 miENE (60°)9.2 mphMostly Cloudy
10:20 PM32.0 °F23.0 °F69 %29.92 in6.2 miENE (60°)6.9 mphMostly Cloudy
10:50 PM30.2 °F23.0 °F75 %29.92 in6.2 miNE (50°)8.1 mphMostly Cloudy
11:20 PM30.2 °F23.0 °F75 %29.92 in6.2 miENE (60°)6.9 mphScattered Clouds
11:50 PM28.4 °F23.0 °F80 %29.92 in6.2 miNE (50°)2.3 mphPartly Cloudy
Hourly data recorded from EDDB, located miles away from Berlin, Germany







STORIES FROM OUR PARTNERS